User: anonymous   Login
Location: Churchill
(58.7670°N, 94.1670°W)
Time: 09:54:03
(UTC-06:00)
Language:

Cosmos 2142 Rocket - Orbit

View from above orbital plane
View from above orbital plane
View from above satellite
View from above satellite

Ground track
Ground track

The orbit data is extracted from the following two-line orbital elements,

1 21231U 91029B   17051.03437090  .00000067  00000-0  53841-4 0  9998
2 21231  82.9530 195.4421 0034980 194.9605 302.6213 13.75737919297672
Epoch (UTC): 20 February 2017 00:49:29
Eccentricity: 0.0034980
inclination: 82.9530°
perigee height: 953 km
apogee height: 1005 km
right ascension of ascending node: 195.4421°
argument of perigee: 194.9605°
revolutions per day: 13.75737919
mean anomaly at epoch: 302.6213°
orbit number at epoch: 29767

The dashed part of the orbit path shows where the satellite is in the earth's shadow,  

DLR